sat.trackr.live / text

‹ back to catalog

STARLINK-30979

NORAD 58485 · 2023-186N

PAYLOAD ACTIVE UNKNOWN

§ Identity

Operator
Country
US
Launch date
2023-12-03
Launch site
AFETR
Launch vehicle
Mass (kg)
RCS (m²)

Purposes: comms

External: N2YO · Heavens-Above · Gunter

§ Orbital elements

Epoch: 2026-05-24T20:42:30.145824Z

Period
94.27 min
Inclination
43.0030°
Eccentricity
0.0001265
Mean motion
15.27592680 rev/d
Perigee alt
482.1 km
Apogee alt
483.9 km
Semi-major
6,861.1 km
B*
2.8432e-5
RAAN
353.6562°
Arg perigee
273.5100°
Mean anomaly
86.5607°
Rev number
13,753

§ Raw data

STARLINK-309791 58485U 23186N   26144.86284891  .00000521  00000+0  28432-4 0  99932 58485  43.0030 353.6562 0001265 273.5100  86.5607 15.27592680137530

JSON: /api/v1/satellites/58485 · /tle

For live sub-satellite position, see the globe view (requires WebGL).

§ Visibility from observer

Set your observer location to see the next 7 days of passes ≥ 10°. The values pass through the URL so the page stays shareable.

No JS? Fill the form by hand. The geolocation button needs JavaScript.